User: anonymous   Login
Location: South Tamworth Observatory
(43.8246°N, 71.3026°W)
Time: 10:55:43
(UTC-05:00)
Language:

Cosmos 2208 Rocket - Orbit

View from above orbital plane
View from above orbital plane
View from above satellite
View from above satellite

Ground track
Ground track

The orbit data is extracted from the following two-line orbital elements,

1 22081U 92053B   17350.85273251 -.00000001 +00000-0 +91013-5 0  9992
2 22081 074.0446 103.7317 0035553 026.5160 333.7800 14.33399354324538
Epoch (UTC): 16 December 2017 20:27:56
Eccentricity: 0.0035553
inclination: 74.0446°
perigee height: 755 km
apogee height: 806 km
right ascension of ascending node: 103.7317°
argument of perigee: 26.5160°
revolutions per day: 14.33399354
mean anomaly at epoch: 333.7800°
orbit number at epoch: 32453

The dashed part of the orbit path shows where the satellite is in the earth's shadow,  

DLR